Regional Weather Roundup
Issued by NWS

Home | Current Version | Previous Version | Text Only | Print | Product List | Glossary Off
Versions: 1 2 3 4 5 6 7 8 9 10 11 12 13 14 15 16 17 18 19 20 21 22 23 24 25 26 27 28 29 30 31 32 33 34 35 36 37 38 39 40 41 42 43 44 45 46 47 48 49 50

000
ASUS43 KIND 202109
RWRIN

WEATHER ROUNDUP FOR INDIANA
NATIONAL WEATHER SERVICE INDIANAPOLIS IN
400 PM EST SAT JAN 20 2018

NOTE: "FAIR" INDICATES FEW OR NO CLOUDS BELOW 12,000 FEET WITH NO
SIGNIFICANT WEATHER AND/OR OBSTRUCTIONS TO VISIBILITY.

* - STATION DOES NOT REPORT WEATHER SUCH AS PRECIPITATION OR FOG.

+ - STATION NOT QUALITY CONTROLLED BY THE NATIONAL WEATHER SERVICE.
    USE DATA WITH CAUTION...ESPECIALLY DEWPOINT AND RELATIVE
    HUMIDITY OBSERVATIONS.

INZ001>003-010>013-019-020-202200-
NORTHWEST INDIANA

CITY           SKY/WX    TMP DP  RH WIND       PRES   REMARKS
GARY /AIRPORT/ MOSUNNY   46  34  61 SW9       29.94R
KNOX *+        FAIR      39  34  81 SW7       29.96S WCI  34
LA PORTE +     FAIR      39  32  76 SW8       29.95S WCI  34
MICHIGAN CITY+ FAIR      43  32  65 S8        29.95R
MONTICELLO +   CLOUDY    39  33  78 S9        30.00R WCI  33
RENSSELAER +   FAIR      41  34  75 S15       29.98R
VALPARAISO     FAIR      43  35  73 S7        29.96R

$$

LMZ046-743>745-202200-
SOUTHERN LAKE MICHIGAN

STATION/POSITION TIME  TEMP    WIND        PRES    WAVE
                       AIR SEA DIR/SP/G            HT
                 (UTC) (F)     (DEG/KT/KT) (MB)    (FT)
BURNS HARBOR     2040   42     200/ 11/ 14 1014.2F
MICHIGAN CITY    2040   43     190/ 11/ 12   N/A

$$

INZ004-005-014>016-021>024-202200-
NORTH CENTRAL INDIANA

CITY           SKY/WX    TMP DP  RH WIND       PRES   REMARKS
ELKHART        SUNNY     41  30  65 SW6       29.95S
GOSHEN         FAIR      39  32  76 SW9G22    29.96S WCI  33
LOGANSPORT +   CLOUDY    37  32  81 SW7       30.01R WCI  32
PERU/GRISSOM   CLOUDY    40  37  86 SW10      30.00R WCI  34
ROCHESTER +    FAIR      45  36  70 S7        29.98S
SOUTH BEND     FAIR      40  32  73 SW12      29.96S WCI  33
WARSAW +       FAIR      41  32  70 SW9       29.97S

$$

INZ006>009-017-018-025>027-202200-
NORTHEAST INDIANA

CITY           SKY/WX    TMP DP  RH WIND       PRES   REMARKS
AUBURN +       FAIR     N/A N/A N/A SW6       29.98S
FORT WAYNE     PTSUNNY   41  34  76 SW13      30.00R
HUNTINGTON +   FAIR      41  32  71 SW10G16   30.00R
KENDALLVILLE + FAIR      40  32  73 SW9       29.97R WCI  34

$$

INZ028-029-035-036-043>045-051>053-202200-
WEST CENTRAL INDIANA

CITY           SKY/WX    TMP DP  RH WIND       PRES   REMARKS
CRAWFORDSVL +  CLOUDY    37  31  79 MISG      30.02
GREENCASTLE +  CLOUDY    41  30  65 S5        30.04S
LAFAYETTE      CLOUDY    40  33  76 S7        30.01R WCI  35
TERRE HAUTE    CLOUDY    41  28  60 S8        30.05S

$$

INZ030>032-037>040-046>048-054>057-064-065-202200-
CENTRAL INDIANA

CITY           SKY/WX    TMP DP  RH WIND       PRES   REMARKS
ANDERSON       CLOUDY    41  32  70 SW12      30.02F
COLUMBUS       CLOUDY    43  27  52 S6        30.07R
FISHERS *+     CLOUDY    41  36  81 S6        30.04R
FRANKFORT +    CLOUDY    41  35  79 SW6       30.03R
GREENWOOD *+   CLOUDY    45  33  61 SW7       30.05S
INDIANAPOLIS   CLOUDY    43  32  65 SW10      30.04S
-EAGLE CREEK   CLOUDY    43  30  60 S12       30.03R
MARION +       PTSUNNY   39  34  81 CALM      30.02R HAZE
MT COMFORT *+  CLOUDY    41  36  81 S5        30.04S
SHELBYVILLE    CLOUDY    42  29  59 S10       30.05R
ZIONSVILLE +   CLOUDY    40  32  73 S10       30.03R WCI  33

$$

INZ033-034-041-042-049-050-058-059-202200-
EAST CENTRAL INDIANA

CITY           SKY/WX    TMP DP  RH WIND       PRES   REMARKS
MUNCIE         CLOUDY    44  31  60 SW9       30.02R
RICHMOND +     CLOUDY    37  34  87 SW9       30.06R WCI  31

$$

INZ060-061-067>069-081>083-085>088-202200-
SOUTHWEST INDIANA

CITY           SKY/WX    TMP DP  RH WIND       PRES   REMARKS
EVANSVILLE     CLOUDY    44  39  82 S12       30.09S
HUNTINGBURG +  CLOUDY    44  40  85 SW8       30.10R
WASHINGTON +   CLOUDY    43  35  72 SW8       30.07R

$$

INZ062-063-066-070>080-084-089>092-202200-
SOUTH CENTRAL AND SOUTHEAST INDIANA

CITY           SKY/WX    TMP DP  RH WIND       PRES   REMARKS
BATESVILLE *+    N/A    N/A N/A N/A MISG        N/A
BEDFORD +      CLOUDY    48  32  53 SW6       30.06S
BLOOMINGTON    CLOUDY    45  30  55 SW9       30.05S
FRENCH LICK *+ CLOUDY    45  37  76 SW9       30.08S
MADISON *+     CLOUDY    46  30  53 S8        30.10R
NORTH VERNON + CLOUDY    43  30  61 S6        30.08R
SEYMOUR +      CLOUDY    48  32  53 S7        30.07S

$$





USA.gov is the U.S. government's official web portal to all federal, state and local government web resources and services.